Location: Drouwen
(52.9559°N, 6.7974°E)
Time: 20:40:11
(UTC+00:00)

CZ-4B R/B - Pass Details

Date: 15 May 2026
Orbit: 442 x 558 km, 97.8° (Epoch: 7 June)

Event Time Altitude Azimuth Distance (km) Brightness Sun altitude
Exits shadow 20:50:07 12° 169° (S) 1,440 4.4 -10.2°
Maximum altitude 20:53:09 79° 256° (WSW) 476 2.5 -10.5°
Drops below altitude 10° 20:56:41 10° 343° (NNW) 1,645 6.5 -10.8°
Sets 20:58:47 0° 345° (NNW) 2,547 7.7 -11.0°
